Time,TemperatureF,DewpointF,PressureIn,WindDirection,WindDirectionDegrees,WindSpeedMPH,WindSpeedGustMPH,Humidity,HourlyPrecipIn,Conditions,Clouds,dailyrainin,SoftwareType,DateUTC
2013-03-19 00:07:00,28.7,24.8,29.62,West,266,19.0,19.0,85,0.00,,,0.00,Wunderground v.1.15,2013-03-19 04:07:00,
2013-03-19 00:17:00,27.9,24.5,29.62,West,260,20.0,20.0,87,0.00,,,0.00,Wunderground v.1.15,2013-03-19 04:17:00,
2013-03-19 00:27:00,27.8,24.2,29.63,West,265,19.0,20.0,86,0.00,,,0.00,Wunderground v.1.15,2013-03-19 04:27:00,
2013-03-19 00:37:00,27.6,23.7,29.63,West,269,18.0,18.0,85,0.00,,,0.00,Wunderground v.1.15,2013-03-19 04:37:00,
2013-03-19 00:47:00,27.6,23.4,29.63,West,259,18.0,18.0,84,0.00,,,0.00,Wunderground v.1.15,2013-03-19 04:47:00,
2013-03-19 00:57:00,27.3,23.1,29.64,West,265,18.0,21.0,84,0.00,,,0.00,Wunderground v.1.15,2013-03-19 04:57:00,
2013-03-19 01:07:00,26.9,22.7,29.64,West,263,18.0,18.0,84,0.00,,,0.00,Wunderground v.1.15,2013-03-19 05:07:00,
2013-03-19 01:17:00,26.4,22.2,29.64,WSW,254,15.0,15.0,84,0.00,,,0.00,Wunderground v.1.15,2013-03-19 05:17:00,
2013-03-19 01:27:00,26.1,21.6,29.64,West,274,18.0,18.0,83,0.00,,,0.00,Wunderground v.1.15,2013-03-19 05:27:00,
2013-03-19 01:37:00,26.0,21.5,29.64,West,267,18.0,18.0,83,0.00,,,0.00,Wunderground v.1.15,2013-03-19 05:37:00,
2013-03-19 01:47:00,25.7,21.0,29.64,WSW,255,19.0,19.0,82,0.00,,,0.00,Wunderground v.1.15,2013-03-19 05:47:00,
2013-03-19 01:57:00,25.6,20.9,29.65,WSW,256,18.0,21.0,82,0.00,,,0.00,Wunderground v.1.15,2013-03-19 05:57:00,
2013-03-19 02:07:00,25.1,20.4,29.65,WSW,257,20.0,20.0,82,0.00,,,0.00,Wunderground v.1.15,2013-03-19 06:07:00,
2013-03-19 02:17:00,24.7,20.0,29.65,WSW,257,18.0,18.0,82,0.00,,,0.00,Wunderground v.1.15,2013-03-19 06:17:00,
2013-03-19 02:27:00,24.4,20.5,29.65,West,265,17.0,18.0,85,0.00,,,0.00,Wunderground v.1.15,2013-03-19 06:27:00,
2013-03-19 02:37:00,24.2,19.8,29.65,WSW,250,18.0,18.0,83,0.00,,,0.00,Wunderground v.1.15,2013-03-19 06:37:00,
2013-03-19 02:47:00,24.1,19.4,29.65,WSW,251,16.0,16.0,82,0.00,,,0.00,Wunderground v.1.15,2013-03-19 06:47:00,
2013-03-19 02:57:00,23.9,18.6,29.66,WSW,246,16.0,22.0,80,0.00,,,0.00,Wunderground v.1.15,2013-03-19 06:57:00,
2013-03-19 03:07:00,23.6,18.0,29.66,WSW,252,18.0,18.0,79,0.00,,,0.00,Wunderground v.1.15,2013-03-19 07:07:00,
2013-03-19 03:17:00,23.3,17.5,29.67,WSW,249,18.0,18.0,78,0.00,,,0.00,Wunderground v.1.15,2013-03-19 07:17:00,
2013-03-19 03:27:00,23.2,18.2,29.66,WSW,246,17.0,18.0,81,0.00,,,0.00,Wunderground v.1.15,2013-03-19 07:27:00,
2013-03-19 03:37:00,22.9,17.9,29.66,West,270,18.0,18.0,81,0.00,,,0.00,Wunderground v.1.15,2013-03-19 07:37:00,
2013-03-19 03:47:00,22.9,17.9,29.66,West,263,17.0,17.0,81,0.00,,,0.00,Wunderground v.1.15,2013-03-19 07:47:00,
2013-03-19 03:57:00,23.0,18.0,29.66,WSW,258,15.0,17.0,81,0.00,,,0.00,Wunderground v.1.15,2013-03-19 07:57:00,
2013-03-19 04:07:00,22.7,17.7,29.66,West,259,16.0,16.0,81,0.00,,,0.00,Wunderground v.1.15,2013-03-19 08:07:00,
2013-03-19 04:17:00,22.5,17.8,29.67,West,263,16.0,16.0,82,0.00,,,0.00,Wunderground v.1.15,2013-03-19 08:17:00,
2013-03-19 04:27:00,22.4,17.7,29.66,WSW,257,17.0,17.0,82,0.00,,,0.00,Wunderground v.1.15,2013-03-19 08:27:00,
2013-03-19 04:37:00,22.1,17.7,29.66,SW,236,15.0,15.0,83,0.00,,,0.00,Wunderground v.1.15,2013-03-19 08:37:00,
2013-03-19 04:47:00,21.9,17.8,29.67,West,267,17.0,18.0,84,0.00,,,0.00,Wunderground v.1.15,2013-03-19 08:47:00,
2013-03-19 04:57:00,21.8,17.7,29.66,WSW,240,17.0,21.0,84,0.00,,,0.00,Wunderground v.1.15,2013-03-19 08:57:00,
2013-03-19 05:07:00,21.6,17.0,29.66,WSW,249,18.0,18.0,82,0.00,,,0.00,Wunderground v.1.15,2013-03-19 09:07:00,
2013-03-19 05:17:00,21.6,17.2,29.66,West,261,18.0,18.0,83,0.00,,,0.00,Wunderground v.1.15,2013-03-19 09:17:00,
2013-03-19 05:27:00,21.4,16.8,29.66,WSW,248,19.0,19.0,82,0.00,,,0.00,Wunderground v.1.15,2013-03-19 09:27:00,
2013-03-19 05:37:00,21.4,16.8,29.66,WSW,258,17.0,17.0,82,0.00,,,0.00,Wunderground v.1.15,2013-03-19 09:37:00,
2013-03-19 05:47:00,21.4,17.0,29.66,WSW,252,15.0,15.0,83,0.00,,,0.00,Wunderground v.1.15,2013-03-19 09:47:00,
2013-03-19 05:57:00,21.6,17.0,29.67,WSW,258,16.0,16.0,82,0.00,,,0.00,Wunderground v.1.15,2013-03-19 09:57:00,
2013-03-19 06:07:00,21.6,16.7,29.67,WSW,252,16.0,18.0,81,0.00,,,0.00,Wunderground v.1.15,2013-03-19 10:07:00,
2013-03-19 06:17:00,21.4,17.0,29.68,WSW,243,16.0,17.0,83,0.00,,,0.00,Wunderground v.1.15,2013-03-19 10:17:00,
2013-03-19 06:27:00,21.3,17.5,29.68,WSW,252,14.0,16.0,85,0.00,,,0.00,Wunderground v.1.15,2013-03-19 10:27:00,
2013-03-19 06:37:00,21.0,17.5,29.68,WSW,250,15.0,16.0,86,0.00,,,0.00,Wunderground v.1.15,2013-03-19 10:37:00,
2013-03-19 06:47:00,20.6,17.1,29.68,WSW,250,16.0,17.0,86,0.00,,,0.00,Wunderground v.1.15,2013-03-19 10:47:00,
2013-03-19 06:57:00,20.6,17.1,29.69,WSW,250,16.0,21.0,86,0.00,,,0.00,Wunderground v.1.15,2013-03-19 10:57:00,
2013-03-19 07:07:00,20.6,17.3,29.69,WSW,248,16.0,16.0,87,0.00,,,0.00,Wunderground v.1.15,2013-03-19 11:07:00,
2013-03-19 07:17:00,20.5,17.2,29.70,WSW,248,15.0,15.0,87,0.00,,,0.00,Wunderground v.1.15,2013-03-19 11:17:00,
2013-03-19 07:27:00,20.3,16.8,29.70,WSW,258,16.0,18.0,86,0.00,,,0.00,Wunderground v.1.15,2013-03-19 11:27:00,
2013-03-19 07:37:00,20.2,16.1,29.70,West,271,18.0,18.0,84,0.00,,,0.00,Wunderground v.1.15,2013-03-19 11:37:00,
2013-03-19 07:47:00,20.2,16.1,29.70,West,261,15.0,15.0,84,0.00,,,0.00,Wunderground v.1.15,2013-03-19 11:47:00,
2013-03-19 07:57:00,20.3,16.0,29.71,West,261,15.0,15.0,83,0.00,,,0.00,Wunderground v.1.15,2013-03-19 11:57:00,
2013-03-19 08:07:00,20.2,17.0,29.71,West,269,13.0,13.0,87,0.00,,,0.00,Wunderground v.1.15,2013-03-19 12:07:00,
2013-03-19 08:17:00,20.2,17.7,29.71,WSW,252,13.0,17.0,90,0.00,,,0.00,Wunderground v.1.15,2013-03-19 12:17:00,
2013-03-19 08:27:00,19.9,17.7,29.71,WSW,247,14.0,14.0,91,0.00,,,0.00,Wunderground v.1.15,2013-03-19 12:27:00,
2013-03-19 08:37:00,19.7,17.5,29.71,WSW,252,13.0,13.0,91,0.00,,,0.00,Wunderground v.1.15,2013-03-19 12:37:00,
2013-03-19 08:47:00,19.7,17.8,29.71,WSW,245,14.0,14.0,92,0.00,,,0.00,Wunderground v.1.15,2013-03-19 12:47:00,
2013-03-19 08:57:00,19.5,17.6,29.71,WSW,246,14.0,14.0,92,0.00,,,0.00,Wunderground v.1.15,2013-03-19 12:57:00,
2013-03-19 09:07:00,19.5,17.8,29.71,WSW,244,14.0,14.0,93,0.00,,,0.00,Wunderground v.1.15,2013-03-19 13:07:00,
2013-03-19 09:17:00,19.7,18.0,29.71,WSW,247,14.0,17.0,93,0.00,,,0.00,Wunderground v.1.15,2013-03-19 13:17:00,
2013-03-19 09:27:00,19.7,18.0,29.72,WSW,254,15.0,15.0,93,0.00,,,0.00,Wunderground v.1.15,2013-03-19 13:27:00,
2013-03-19 09:37:00,19.9,18.2,29.72,WSW,240,11.0,11.0,93,0.00,,,0.00,Wunderground v.1.15,2013-03-19 13:37:00,
2013-03-19 09:47:00,19.7,18.0,29.72,WSW,258,13.0,13.0,93,0.00,,,0.00,Wunderground v.1.15,2013-03-19 13:47:00,
2013-03-19 09:57:00,19.7,18.0,29.72,West,259,13.0,14.0,93,0.00,,,0.00,Wunderground v.1.15,2013-03-19 13:57:00,
2013-03-19 10:07:00,19.7,18.0,29.72,West,261,15.0,15.0,93,0.00,,,0.00,Wunderground v.1.15,2013-03-19 14:07:00,
2013-03-19 10:17:00,19.5,17.8,29.73,WSW,257,14.0,16.0,93,0.00,,,0.00,Wunderground v.1.15,2013-03-19 14:17:00,
2013-03-19 10:27:00,19.5,17.8,29.73,West,268,17.0,17.0,93,0.00,,,0.00,Wunderground v.1.15,2013-03-19 14:27:00,
2013-03-19 10:37:00,19.5,17.8,29.73,West,261,16.0,16.0,93,0.00,,,0.00,Wunderground v.1.15,2013-03-19 14:37:00,
2013-03-19 10:47:00,19.5,17.8,29.73,WSW,257,13.0,13.0,93,0.00,,,0.00,Wunderground v.1.15,2013-03-19 14:47:00,
2013-03-19 10:57:00,19.7,18.0,29.74,West,260,14.0,29.0,93,0.00,,,0.00,Wunderground v.1.15,2013-03-19 14:57:00,
2013-03-19 11:07:00,19.5,17.8,29.74,West,267,21.0,21.0,93,0.00,,,0.00,Wunderground v.1.15,2013-03-19 15:07:00,
2013-03-19 11:17:00,19.4,17.5,29.75,West,260,21.0,21.0,92,0.00,,,0.00,Wunderground v.1.15,2013-03-19 15:17:00,
2013-03-19 11:27:00,19.5,17.6,29.75,West,271,23.0,30.0,92,0.00,,,0.00,Wunderground v.1.15,2013-03-19 15:27:00,
2013-03-19 11:37:00,19.5,17.6,29.75,West,269,23.0,29.0,92,0.00,,,0.00,Wunderground v.1.15,2013-03-19 15:37:00,
2013-03-19 11:47:00,19.7,17.8,29.76,West,260,24.0,30.0,92,0.00,,,0.00,Wunderground v.1.15,2013-03-19 15:47:00,
2013-03-19 11:57:00,19.7,17.8,29.76,WSW,248,20.0,20.0,92,0.00,,,0.00,Wunderground v.1.15,2013-03-19 15:57:00,
2013-03-19 12:07:00,19.7,17.8,29.76,WSW,252,17.0,17.0,92,0.00,,,0.00,Wunderground v.1.15,2013-03-19 16:07:00,
2013-03-19 12:17:00,19.7,18.0,29.77,West,261,17.0,17.0,93,0.00,,,0.00,Wunderground v.1.15,2013-03-19 16:17:00,
2013-03-19 12:27:00,20.0,18.3,29.78,WSW,257,14.0,18.0,93,0.00,,,0.00,Wunderground v.1.15,2013-03-19 16:27:00,
2013-03-19 12:37:00,19.9,18.0,29.78,West,265,14.0,14.0,92,0.00,,,0.00,Wunderground v.1.15,2013-03-19 16:37:00,
2013-03-19 12:47:00,19.5,17.6,29.78,West,259,15.0,16.0,92,0.00,,,0.00,Wunderground v.1.15,2013-03-19 16:47:00,
2013-03-19 12:57:00,19.5,17.6,29.79,West,261,16.0,17.0,92,0.00,,,0.00,Wunderground v.1.15,2013-03-19 16:57:00,
2013-03-19 13:07:00,19.7,17.8,29.79,WSW,254,14.0,14.0,92,0.00,,,0.00,Wunderground v.1.15,2013-03-19 17:07:00,
2013-03-19 13:17:00,19.9,18.0,29.79,WSW,257,15.0,17.0,92,0.00,,,0.00,Wunderground v.1.15,2013-03-19 17:17:00,
2013-03-19 13:27:00,20.2,18.2,29.80,West,260,14.0,14.0,92,0.00,,,0.00,Wunderground v.1.15,2013-03-19 17:27:00,
2013-03-19 13:37:00,20.3,18.3,29.80,WSW,255,13.0,16.0,92,0.00,,,0.00,Wunderground v.1.15,2013-03-19 17:37:00,
2013-03-19 13:47:00,20.3,18.6,29.80,WSW,257,13.0,17.0,93,0.00,,,0.00,Wunderground v.1.15,2013-03-19 17:47:00,
2013-03-19 13:57:00,20.5,18.8,29.81,West,269,12.0,12.0,93,0.00,,,0.00,Wunderground v.1.15,2013-03-19 17:57:00,
2013-03-19 14:07:00,20.5,18.8,29.81,West,261,11.0,12.0,93,0.00,,,0.00,Wunderground v.1.15,2013-03-19 18:07:00,
2013-03-19 14:17:00,20.6,18.9,29.82,West,262,13.0,13.0,93,0.00,,,0.00,Wunderground v.1.15,2013-03-19 18:17:00,
2013-03-19 14:27:00,20.6,18.9,29.83,West,268,12.0,12.0,93,0.00,,,0.00,Wunderground v.1.15,2013-03-19 18:27:00,
2013-03-19 14:37:00,21.0,19.3,29.83,West,270,11.0,12.0,93,0.00,,,0.00,Wunderground v.1.15,2013-03-19 18:37:00,
2013-03-19 14:47:00,21.1,19.4,29.83,WSW,254,12.0,16.0,93,0.00,,,0.00,Wunderground v.1.15,2013-03-19 18:47:00,
2013-03-19 14:57:00,21.3,19.3,29.83,West,273,13.0,13.0,92,0.00,,,0.00,Wunderground v.1.15,2013-03-19 18:57:00,
2013-03-19 15:07:00,21.4,19.4,29.83,West,259,11.0,14.0,92,0.00,,,0.00,Wunderground v.1.15,2013-03-19 19:07:00,
2013-03-19 15:17:00,21.8,19.8,29.83,West,267,11.0,13.0,92,0.00,,,0.00,Wunderground v.1.15,2013-03-19 19:17:00,
2013-03-19 15:27:00,22.1,19.9,29.83,West,267,12.0,15.0,91,0.00,,,0.00,Wunderground v.1.15,2013-03-19 19:27:00,
2013-03-19 15:37:00,22.4,20.2,29.83,West,276,12.0,12.0,91,0.00,,,0.00,Wunderground v.1.15,2013-03-19 19:37:00,
2013-03-19 15:47:00,22.5,20.0,29.84,West,272,12.0,12.0,90,0.00,,,0.00,Wunderground v.1.15,2013-03-19 19:47:00,
2013-03-19 15:57:00,22.9,20.4,29.84,WSW,257,10.0,10.0,90,0.00,,,0.00,Wunderground v.1.15,2013-03-19 19:57:00,
2013-03-19 16:07:00,23.3,20.3,29.84,West,281,11.0,11.0,88,0.00,,,0.00,Wunderground v.1.15,2013-03-19 20:07:00,
2013-03-19 16:17:00,23.8,20.5,29.85,West,276,11.0,11.0,87,0.00,,,0.00,Wunderground v.1.15,2013-03-19 20:17:00,
2013-03-19 16:27:00,23.9,20.6,29.85,West,269,13.0,16.0,87,0.00,,,0.00,Wunderground v.1.15,2013-03-19 20:27:00,
2013-03-19 16:47:00,24.4,20.5,29.85,West,263,13.0,15.0,85,0.00,,,0.00,Wunderground v.1.15,2013-03-19 20:47:00,
2013-03-19 16:57:00,24.7,20.3,29.85,West,265,13.0,15.0,83,0.00,,,0.00,Wunderground v.1.15,2013-03-19 20:57:00,
2013-03-19 17:07:00,25.0,19.7,29.85,West,271,13.0,13.0,80,0.00,,,0.00,Wunderground v.1.15,2013-03-19 21:07:00,
2013-03-19 17:17:00,25.6,19.4,29.86,WSW,255,13.0,17.0,77,0.00,,,0.00,Wunderground v.1.15,2013-03-19 21:17:00,
2013-03-19 17:27:00,26.0,18.5,29.86,West,261,14.0,21.0,73,0.00,,,0.00,Wunderground v.1.15,2013-03-19 21:27:00,
2013-03-19 17:37:00,26.6,18.8,29.86,West,268,13.0,14.0,72,0.00,,,0.00,Wunderground v.1.15,2013-03-19 21:37:00,
2013-03-19 17:47:00,26.7,18.6,29.86,West,274,11.0,14.0,71,0.00,,,0.00,Wunderground v.1.15,2013-03-19 21:47:00,
2013-03-19 17:57:00,27.0,18.8,29.87,West,271,15.0,15.0,71,0.00,,,0.00,Wunderground v.1.15,2013-03-19 21:57:00,
2013-03-19 18:07:00,27.3,18.5,29.87,West,277,14.0,14.0,69,0.00,,,0.00,Wunderground v.1.15,2013-03-19 22:07:00,
2013-03-19 18:17:00,27.6,18.4,29.88,West,276,15.0,15.0,68,0.00,,,0.00,Wunderground v.1.15,2013-03-19 22:17:00,
2013-03-19 18:27:00,28.2,17.9,29.88,WNW,288,13.0,16.0,65,0.00,,,0.00,Wunderground v.1.15,2013-03-19 22:27:00,
2013-03-19 18:37:00,27.8,17.9,29.88,West,265,14.0,14.0,66,0.00,,,0.00,Wunderground v.1.15,2013-03-19 22:37:00,
2013-03-19 18:47:00,27.9,17.3,29.89,West,277,15.0,15.0,64,0.00,,,0.00,Wunderground v.1.15,2013-03-19 22:47:00,
2013-03-19 18:57:00,28.5,17.1,29.89,West,277,14.0,14.0,62,0.00,,,0.00,Wunderground v.1.15,2013-03-19 22:57:00,
2013-03-19 19:07:00,28.5,16.7,29.89,West,277,14.0,15.0,61,0.00,,,0.00,Wunderground v.1.15,2013-03-19 23:07:00,
2013-03-19 19:17:00,28.4,16.7,29.90,West,277,13.0,13.0,61,0.00,,,0.00,Wunderground v.1.15,2013-03-19 23:17:00,
2013-03-19 19:27:00,28.2,16.1,29.90,West,274,12.0,12.0,60,0.00,,,0.00,Wunderground v.1.15,2013-03-19 23:27:00,
2013-03-19 19:37:00,27.9,15.4,29.90,West,271,14.0,14.0,59,0.00,,,0.00,Wunderground v.1.15,2013-03-19 23:37:00,
2013-03-19 19:47:00,27.6,14.7,29.91,WNW,284,12.0,12.0,58,0.00,,,0.00,Wunderground v.1.15,2013-03-19 23:47:00,
2013-03-19 19:57:00,27.6,14.7,29.91,West,272,12.0,12.0,58,0.00,,,0.00,Wunderground v.1.15,2013-03-19 23:57:00,
2013-03-19 20:07:00,27.6,14.7,29.91,West,259,12.0,12.0,58,0.00,,,0.00,Wunderground v.1.15,2013-03-20 00:07:00,
2013-03-19 20:17:00,27.3,14.5,29.91,West,273,9.0,9.0,58,0.00,,,0.00,Wunderground v.1.15,2013-03-20 00:17:00,
2013-03-19 20:27:00,27.3,14.5,29.92,West,263,8.0,13.0,58,0.00,,,0.00,Wunderground v.1.15,2013-03-20 00:27:00,
2013-03-19 20:37:00,27.3,15.6,29.92,WSW,258,9.0,9.0,61,0.00,,,0.00,Wunderground v.1.15,2013-03-20 00:37:00,
2013-03-19 20:47:00,27.3,16.7,29.92,West,275,8.0,8.0,64,0.00,,,0.00,Wunderground v.1.15,2013-03-20 00:47:00,
2013-03-19 20:57:00,27.2,17.0,29.93,West,271,6.0,6.0,65,0.00,,,0.00,Wunderground v.1.15,2013-03-20 00:57:00,
2013-03-19 21:07:00,27.0,14.9,29.93,West,281,7.0,9.0,60,0.00,,,0.00,Wunderground v.1.15,2013-03-20 01:07:00,
2013-03-19 21:17:00,27.2,14.0,29.93,West,274,8.0,8.0,57,0.00,,,0.00,Wunderground v.1.15,2013-03-20 01:17:00,
2013-03-19 21:27:00,27.0,13.8,29.94,West,267,7.0,8.0,57,0.00,,,0.00,Wunderground v.1.15,2013-03-20 01:27:00,
2013-03-19 21:37:00,26.9,14.1,29.94,West,265,7.0,7.0,58,0.00,,,0.00,Wunderground v.1.15,2013-03-20 01:37:00,
2013-03-19 21:47:00,26.7,14.3,29.94,West,267,6.0,6.0,59,0.00,,,0.00,Wunderground v.1.15,2013-03-20 01:47:00,
2013-03-19 21:57:00,26.9,14.1,29.94,West,275,6.0,9.0,58,0.00,,,0.00,Wunderground v.1.15,2013-03-20 01:57:00,
2013-03-19 22:07:00,27.5,14.2,29.94,West,265,8.0,8.0,57,0.00,,,0.00,Wunderground v.1.15,2013-03-20 02:07:00,
2013-03-19 22:17:00,28.1,17.1,29.94,West,272,10.0,10.0,63,0.00,,,0.00,Wunderground v.1.15,2013-03-20 02:17:00,
2013-03-19 22:27:00,28.1,17.8,29.94,West,269,12.0,12.0,65,0.00,,,0.00,Wunderground v.1.15,2013-03-20 02:27:00,
2013-03-19 22:37:00,28.2,17.6,29.94,West,274,12.0,14.0,64,0.00,,,0.00,Wunderground v.1.15,2013-03-20 02:37:00,
2013-03-19 22:47:00,28.1,17.8,29.94,West,267,13.0,13.0,65,0.00,,,0.00,Wunderground v.1.15,2013-03-20 02:47:00,
2013-03-19 22:57:00,28.1,17.5,29.94,West,269,13.0,13.0,64,0.00,,,0.00,Wunderground v.1.15,2013-03-20 02:57:00,
2013-03-19 23:07:00,27.9,17.3,29.94,West,269,10.0,10.0,64,0.00,,,0.00,Wunderground v.1.15,2013-03-20 03:07:00,
2013-03-19 23:17:00,27.9,17.3,29.94,West,268,9.0,9.0,64,0.00,,,0.00,Wunderground v.1.15,2013-03-20 03:17:00,
2013-03-19 23:27:00,27.9,16.6,29.94,West,279,9.0,9.0,62,0.00,,,0.00,Wunderground v.1.15,2013-03-20 03:27:00,
2013-03-19 23:37:00,27.8,14.5,29.94,West,271,18.0,18.0,57,0.00,,,0.00,Wunderground v.1.15,2013-03-20 03:37:00,
2013-03-19 23:47:00,27.3,13.2,29.94,West,279,14.0,16.0,55,0.00,,,0.00,Wunderground v.1.15,2013-03-20 03:47:00,
2013-03-19 23:57:00,27.0,12.5,29.94,West,271,11.0,16.0,54,0.00,,,0.00,Wunderground v.1.15,2013-03-20 03:57:00,